Location: Dumpton Point
(51.3500°N, 1.4433°E)
Time: 20:21:55
(UTC+00:00)

Vanguard 2 Rocket - Pass Details

Date: 02 October 2022
Orbit: 555 x 3321 km, 32.9° (Epoch: 05 December)

Event Time Altitude Azimuth Distance (km) Brightness Sun altitude
Rises 21:29:24 0° 211° (SSW) 6,840 11.2 -34.9°
Enters shadow 21:35:28 - 199° (SSW) 5,554 10.6 -35.5°
Reaches altitude 10° 21:36:24 10° 197° (SSW) 5,360 - -35.6°
Maximum altitude 21:45:00 18° 162° (SSE) 3,970 - -36.4°
Drops below altitude 10° 21:51:31 10° 124° (SE) 3,915 - -37.1°
Sets 21:55:24 0° 106° (ESE) 4,449 - -37.4°
